リニア彗星

C/2003 R1 ( LINEAR )

English version
Home page
Total 6,336 html files since Dec. 4, 1995
Updated on August 27, 2004

---------------------------------------------------------------------

・ プロフィール

発見日 2003年9月2日
発見光度 18.3等
発見者 Lincoln Laboratory Near-Earth Asteroid Research project

・ 軌道要素

T 2003 June 29.5921 TT                                  MPC
q   2.101765             (2000.0)            P               Q
n   0.0113266      Peri.  302.6820      +0.5808137      +0.8134993
a  19.636771       Node   356.6902      +0.8050241      -0.5793943
e   0.892968       Incl.  149.1943      -0.1207955      +0.0502102
P  87.0
>From 158 observations 2003 Sept. 2-Nov. 23.

・ 星図

・ 光度変化

        m1 = 13.5 + 5 logΔ + 10.0 log r  [   ,415]  (              〜2004年 8月17日)
        m1 =  3.8 + 5 logΔ + 20   log r  [415,   ]  (2004年 8月17日〜              )

---------------------------------------------------------------------

軌道要素はM.P.E.C. 2003-W50に掲載されたものです。
星図は StellaNavigator Ver.2.0 for Windows (アストロアーツ 編著 / アスキー出版局刊) で作成したものです。
光度グラフはComet for Windowsで作成したものです。

---------------------------------------------------------------------

Copyright(C) 1995-2008 Seiichi Yoshida (comet@aerith.net). All rights reserved.